| time (UTC) | temp F | wind direction | speed knots | gust knots | rain 1hr in | rain 24hr in | rain mn in | humidity % | barometer mb |
| 20260506102725 | 50 | 292 | 9.6 | 16.5 | 0.00 | 0.00 | 0.00 | 26 | 1014.2 |
| 20260506100726 | 49 | 308 | 9.6 | 14.8 | 0.00 | 0.00 | 0.00 | 26 | 1014.0 |
| 20260506094726 | 48 | 324 | 9.6 | 16.5 | 0.00 | 0.00 | 0.00 | 26 | 1013.9 |
| 20260506092725 | 47 | 324 | 7.8 | 15.6 | 0.00 | 0.00 | 0.00 | 31 | 1013.7 |
| 20260506090725 | 50 | 290 | 8.7 | 13.9 | 0.00 | 0.00 | 0.00 | 33 | 1013.6 |
| 20260506084726 | 49 | 283 | 10.4 | 15.6 | 0.00 | 0.00 | 0.00 | 34 | 1013.7 |
| 20260506082726 | 46 | 295 | 10.4 | 14.8 | 0.00 | 0.00 | 0.00 | 37 | 1013.6 |
| 20260506080725 | 48 | 265 | 7.8 | 12.2 | 0.00 | 0.00 | 0.00 | 40 | 1013.5 |
| 20260506072726 | 48 | 284 | 7.0 | 11.3 | 0.00 | 0.00 | 0.00 | 45 | 1013.1 |
| 20260506070725 | 47 | 274 | 3.5 | 8.7 | 0.00 | 0.00 | 0.00 | 50 | 1012.9 |
| 20260506060725 | 44 | 255 | 4.3 | 7.8 | 0.00 | 0.00 | 0.00 | 56 | 1012.6 |
| 20260506050724 | 41 | 288 | 5.2 | 7.8 | 0.00 | 0.00 | 0.00 | 73 | 1012.1 |
| 20260506044725 | 40 | 276 | 5.2 | 7.0 | 0.00 | 0.00 | 0.00 | 76 | 1012.0 |
| 20260506042724 | 39 | 270 | 5.2 | 6.1 | 0.00 | 0.00 | 0.00 | 80 | 1011.8 |
| 20260506040724 | 37 | 269 | 4.3 | 5.2 | 0.00 | 0.00 | 0.00 | 86 | 1011.6 |
| 20260506034725 | 36 | 268 | 5.2 | 6.1 | 0.00 | 0.00 | 0.00 | 86 | 1011.4 |
| 20260506032724 | 34 | 280 | 5.2 | 6.1 | 0.00 | 0.00 | 0.00 | 87 | 1011.2 |
| 20260506030724 | 32 | 282 | 4.3 | 6.1 | 0.00 | 0.00 | 0.00 | 89 | 1011.1 |
| 20260506024724 | 32 | 283 | 5.2 | 6.1 | 0.00 | 0.00 | 0.00 | 93 | 1010.9 |
| 20260506022724 | 32 | 262 | 5.2 | 5.2 | 0.00 | 0.00 | 0.00 | 92 | 1010.8 |
| 20260506020724 | 31 | 256 | 5.2 | 6.1 | 0.00 | 0.00 | 0.00 | 92 | 1010.8 |
| 20260506014724 | 31 | 256 | 5.2 | 5.2 | 0.00 | 0.00 | 0.00 | 91 | 1010.7 |
| 20260506012724 | 31 | 257 | 3.5 | 5.2 | 0.00 | 0.00 | 0.00 | 92 | 1010.4 |
| 20260506010724 | 31 | 256 | 3.5 | 3.5 | 0.00 | 0.00 | 0.00 | 90 | 1010.3 |
| 20260506004723 | 32 | 266 | 3.5 | 4.3 | 0.00 | 0.00 | 0.00 | 89 | 1010.0 |
| 20260506002724 | 33 | 243 | 3.5 | 4.3 | 0.00 | 0.00 | 0.00 | 86 | 1009.9 |
| 20260506000724 | 33 | 259 | 4.3 | 4.3 | 0.00 | 0.00 | 0.00 | 86 | 1009.8 |
| 20260505234724 | 32 | 262 | 4.3 | 5.2 | 0.00 | 0.00 | 0.00 | 87 | 1009.6 |
| 20260505232724 | 32 | 261 | 4.3 | 4.3 | 0.00 | 0.00 | 0.00 | 86 | 1009.5 |
| 20260505230724 | 32 | 250 | 4.3 | 5.2 | 0.00 | 0.00 | 0.00 | 86 | 1009.5 |
| 20260505224723 | 32 | 261 | 3.5 | 4.3 | 0.00 | 0.00 | 0.00 | 87 | 1009.5 |
| 20260505222723 | 32 | 274 | 4.3 | 5.2 | 0.00 | 0.00 | 0.00 | 85 | 1009.5 |
| 20260505220724 | 33 | 249 | 3.5 | 4.3 | 0.00 | 0.00 | 0.00 | 81 | 1009.3 |
| 20260505214724 | 33 | 252 | 3.5 | 3.5 | 0.00 | 0.00 | 0.00 | 81 | 1009.3 |
| 20260505212723 | 33 | 249 | 2.6 | 3.5 | 0.00 | 0.00 | 0.00 | 80 | 1009.3 |
| 20260505210723 | 34 | 252 | 2.6 | 3.5 | 0.00 | 0.00 | 0.00 | 76 | 1009.2 |
| 20260505204723 | 35 | 263 | 3.5 | 4.3 | 0.00 | 0.00 | 0.00 | 75 | 1009.1 |
| 20260505202724 | 35 | 266 | 4.3 | 4.3 | 0.00 | 0.00 | 0.00 | 73 | 1009.0 |
| 20260505200723 | 35 | 282 | 4.3 | 5.2 | 0.00 | 0.00 | 0.00 | 72 | 1008.8 |
| 20260505194722 | 37 | 272 | 4.3 | 5.2 | 0.00 | 0.00 | 0.00 | 68 | 1008.6 |
| 20260505192723 | 37 | 278 | 5.2 | 6.1 | 0.00 | 0.00 | 0.00 | 68 | 1008.5 |
| 20260505190722 | 38 | 283 | 4.3 | 6.1 | 0.00 | 0.00 | 0.00 | 64 | 1008.5 |
| 20260505184722 | 38 | 289 | 5.2 | 7.0 | 0.00 | 0.00 | 0.00 | 62 | 1008.3 |
| 20260505182722 | 40 | 288 | 7.0 | 10.4 | 0.00 | 0.00 | 0.00 | 59 | 1008.1 |
| 20260505180722 | 41 | 282 | 7.0 | 10.4 | 0.00 | 0.00 | 0.00 | 60 | 1007.9 |
| 20260505174722 | 42 | 289 | 6.1 | 9.6 | 0.00 | 0.00 | 0.00 | 59 | 1007.7 |
| 20260505172721 | 43 | 282 | 8.7 | 13.0 | 0.00 | 0.00 | 0.00 | 56 | 1007.5 |
| 20260505170722 | 43 | 287 | 11.3 | 14.8 | 0.00 | 0.00 | 0.00 | 53 | 1007.5 |
| 20260505164722 | 44 | 288 | 11.3 | 15.6 | 0.00 | 0.00 | 0.00 | 52 | 1007.3 |
| 20260505162722 | 44 | 289 | 9.6 | 15.6 | 0.00 | 0.00 | 0.00 | 50 | 1007.2 |
| 20260505160722 | 43 | 302 | 8.7 | 13.9 | 0.00 | 0.00 | 0.00 | 54 | 1007.0 |
| 20260505152721 | 45 | 288 | 9.6 | 13.9 | 0.00 | 0.00 | 0.00 | 48 | 1006.9 |
| 20260505150722 | 43 | 289 | 10.4 | 15.6 | 0.00 | 0.00 | 0.00 | 50 | 1006.9 |
| 20260505124721 | 48 | 281 | 14.8 | 24.3 | 0.00 | 0.00 | 0.00 | 48 | 1006.0 |
| 20260505122721 | 47 | 273 | 16.5 | 24.3 | 0.00 | 0.00 | 0.00 | 44 | 1005.8 |
| 20260505120721 | 47 | 279 | 14.8 | 22.6 | 0.00 | 0.00 | 0.00 | 49 | 1005.8 |
| 20260505114721 | 46 | 283 | 13.0 | 21.7 | 0.00 | 0.00 | 0.00 | 54 | 1005.6 |
| 20260505112721 | 45 | 290 | 13.9 | 20.0 | 0.00 | 0.00 | 0.00 | 53 | 1005.5 |
| 20260505110721 | 48 | 286 | 12.2 | 18.2 | 0.00 | 0.00 | 0.00 | 47 | 1005.3 |